Location: Buisson
(44.2787°N, 4.9969°E)
Time: 01:52:35
(UTC+00:00)

CZ-2D R/B - Pass Details

Date: 18 April 2021
Orbit: 792 x 844 km, 98.7° (Epoch: 07 May)

Event Time Altitude Azimuth Distance (km) Brightness Sun altitude
Rises 00:32:38 0° 22° (NNE) 3,412 6.4 -33.6°
Reaches altitude 10° 00:35:14 10° 31° (NNE) 2,474 5.4 -33.4°
Enters shadow 00:39:15 33° 74° (ENE) 1,397 3.5 -33.2°
